Regional Weather Roundup
Issued by NWS

Home | Current Version | Previous Version | Graphics & Text | Print | Product List | Glossary On
Versions: 1 2 3 4 5 6 7 8 9 10 11 12 13 14 15 16 17 18 19 20 21 22 23 24 25 26 27
000
ASUS43 KDMX 190107
RWRIA

WEATHER ROUNDUP FOR IOWA
NATIONAL WEATHER SERVICE DES MOINES IA
800 PM CDT FRI APR 18 2014

NOTE: "FAIR" INDICATES FEW OR NO CLOUDS BELOW 12,000 FEET WITH NO
SIGNIFICANT WEATHER AND/OR OBSTRUCTIONS TO VISIBILITY.

* - THESE STATIONS ARE NOT NWS STATIONS...THUS NOT UNDER NWS
QUALITY CONTROL.  THEY ALSO DO NOT REPORT WEATHER SUCH
AS PRECIPITATION OR FOG.

IAZ001>003-012>014-020>022-031>034-043>046-190200-
   NORTHWEST IOWA

CITY           SKY/WX    TMP DP  RH WIND       PRES   REMARKS
CARROLL *      CLEAR     59  32  36 SE12      30.12R
CHEROKEE *     MOCLDY    59  32  36 S14       30.07S
DENISON *      CLEAR     61  34  36 SE12      30.08S
LE MARS *      CLEAR     63  37  39 SE14G21   30.02S
ORANGE CITY *  CLEAR     63  34  34 SE12G18   30.02F
SHELDON *      CLEAR     59  34  38 SE17G24   30.02F
SIOUX CITY     MOCLDY    64  38  38 SE15      30.02F
SPENCER        MOCLDY    58  32  37 SE17      30.08S
STORM LAKE *   CLEAR     57  32  38 S14G20    30.08F
$$

IAZ055>058-069>071-079>083-090>094-190200-
   SOUTHWEST IOWA

CITY           SKY/WX    TMP DP  RH WIND       PRES   REMARKS
ATLANTIC *     CLEAR     61  36  39 SE10      30.11F
AUDUBON *      CLEAR     57  27  30 S6        30.13S
CLARINDA *     CLEAR     63  37  39 SE9       30.14S
COUNCIL BLFS * CLEAR     61  41  48 S14       30.08R
CRESTON *      CLEAR     55  37  50 SE8       30.15S
HARLAN  *      CLEAR     59  36  41 S10       30.13S
LAMONI         CLEAR     60  39  45 SE8       30.16F
RED OAK *      CLEAR     61  39  44 SE9       30.11F
SHENANDOAH *   CLEAR     63  39  42 S9        30.12S
$$

IAZ047>049-059>061-072>074-084-190200-
   CENTRAL IOWA

CITY           SKY/WX    TMP DP  RH WIND       PRES   REMARKS
AMES           CLEAR     56  31  38 SE10      30.16F
ANKENY *       CLEAR     57  34  41 SE7       30.17S
CHARITON *     CLEAR     59  37  44 SE7       30.18F
DES MOINES     PTCLDY    62  33  33 SE10      30.17F
GRINNELL*      CLEAR     55  28  35 E8        30.21S
KNOXVILLE *    CLEAR     59  34  38 SE7       30.18F
MARSHALLTOWN   CLEAR     53  30  41 SE10      30.19F
NEWTON *       CLEAR     55  30  38 SE10      30.20S
PELLA *        CLEAR     57  32  38 SE5       30.21S
PERRY *          N/A     57  32  38 SE10      30.14F
$$

IAZ004>006-015-016-023>025-035-036-190200-
   NORTH CENTRAL IOWA

CITY           SKY/WX    TMP DP  RH WIND       PRES   REMARKS
ALGONA *       CLEAR     57  30  35 SE17G26   30.13F
CLARION *      CLEAR     54  30  40 SE14      30.16F
ESTHERVILLE    CLEAR     54  32  43 SE17      30.10F
FORT DODGE *   CLEAR     57  30  35 SE12      30.15F
MASON CITY     CLEAR     51  33  50 SE12      30.19F
FOREST CITY *  CLEAR     52  32  46 SE10      30.16F
IOWA FALLS *     N/A     52  32  46 SE7       30.19F
$$

IAZ007>011-017>019-026>030-037>042-050>054-066-190200-
   NORTHEAST IOWA

CITY           SKY/WX    TMP DP  RH WIND       PRES   REMARKS
CEDAR RAPIDS   CLEAR     53  28  38 E7        30.22F
CHARLES CITY * CLEAR     52  32  46 SE8       30.22F
CLINTON *      CLEAR     48  30  49 NE7       30.29F
DECORAH *      CLEAR     52  28  40 SE5       30.24S
DUBUQUE        CLEAR     50  30  46 E6        30.26F
MONTICELLO *   CLEAR     54  32  43 E6        30.25S
OELWEIN *      CLEAR    N/A N/A N/A E9        30.24S
WATERLOO       CLEAR     53  28  38 SE9       30.22S
$$

IAZ064-065-067-068-078-190200-
   EAST CENTRAL IOWA

CITY           SKY/WX    TMP DP  RH WIND       PRES   REMARKS
DAVENPORT      CLEAR     53  30  41 E8        30.28S
IOWA CITY      CLEAR     57  27  31 SE5       30.25F
MT. PLEASANT * CLEAR     57  23  26 E5        30.23S
MUSCATINE *    CLEAR     55  32  41 NE7       30.24S
QUAD CITIES    CLEAR     54  30  40 E7        30.25R
$$

IAZ062-063-075>077-085>089-095>099-190200-
   SOUTHEAST IOWA

CITY           SKY/WX    TMP DP  RH WIND       PRES   REMARKS
BURLINGTON     CLEAR     60  28  29 NE5       30.22F
FAIRFIELD *    CLEAR     52  30  43 E7        30.23R
FORT MADISON * CLEAR     59  30  33 CALM      30.23S
KEOKUK *       CLEAR     59  30  33 NE3       30.21S
OSKALOOSA *      N/A     57  32  38 SE8       30.22S
CENTERVILLE *  CLEAR     57  36  44 E6        30.21R
OTTUMWA        CLEAR     57  31  37 E7        30.21S
WASHINGTON *   CLEAR     52  30  43 E7        30.24R
$$

ABBREVIATIONS USED IN REMARKS
   TC - TEMPERATURES IN CELSIUS
  WCI - WIND CHILL INDEX
   HX - HEAT INDEX
  VSB - VISIBILITY
$$




USA.gov is the U.S. government's official web portal to all federal, state and local government web resources and services.